Kansas City International, MO

6:56 PM CST on December 12, 2017 (GMT -0600)
Kansas City International

Weather History for KMCI - November, 2011

Change the Weather History Date:

Tuesday, November 8, 2011

  Actual Average Record
Temperature  
Mean Temperature 42 °F 48 °F  
Max Temperature 46 °F 57 °F 82 °F (1980)
Min Temperature 38 °F 38 °F 1 °F (1991)
Degree Days  
Heating Degree Days 23 18  
Month to date heating degree days 115 128  
Since 1 July heating degree days 458 488  
Cooling Degree Days 0 0  
Month to date cooling degree days 1 0  
Year to date cooling degree days 1598 1358  
Moisture  
Dew Point 43 °F    
Average Humidity 96    
Maximum Humidity 100    
Minimum Humidity 92    
Precipitation  
Precipitation 1.17 in 0.08 in 1.88 in (1916)
Month to date precipitation 3.75 0.64  
Year to date precipitation 32.75 35.82  
Snow  
Snow 0.00 in 0.00 in 2.00 in (1932)
Month to date snowfall 0.0 0.1  
Since 1 July snowfall 0.0 0.3  
Since 1 September snowfall 0.0 0.3  
Snow Depth 0.00 in    
Sea Level Pressure  
Sea Level Pressure 29.90 in    
Wind  
Wind Speed 14 mph (NNE)    
Max Wind Speed 28 mph    
Max Gust Speed 36 mph    
Visibility 4 miles    
Events Rain , Thunderstorm    
T = Trace of Precipitation, MM = Missing Value Source: NWS Daily Summary

Daily Weather History Graph

Daily Weather History Graph

Search for Another Location

Airport or City:

Trip Planner

Search our weather history database for the weather conditions in past years. The results will help you decide how hot, cold, wet, or windy it might be!

Date:

Astronomy

Nov. 08, 2011 Rise Set
Actual Time 6:54 AM CST 5:10 PM CST
Civil Twilight 6:26 AM CST 5:38 PM CST
Nautical Twilight 5:54 AM CST 6:10 PM CST
Astronomical Twilight 5:22 AM CST 6:42 PM CST
Moon 3:50 PM CST (11/8) 4:54 AM CST (11/8)
Length of Visible Light 11h 12m
Length of Day
10h 16m
Waxing Gibbous, 96% of the Moon is Illuminated
Nov 8
Waxing Gibbous
Nov 10
Full
Nov 18
Last Quarter
Nov 25
New
Dec 2
First Quarter

Hourly Weather History & Observations

Time (CST) Temp. Windchill Dew Point Humidity Pressure Visibility Wind Dir Wind Speed Gust Speed Precip Events Conditions
12:53 AM 45.0 °F 41.2 °F 44.1 °F 97% 29.95 in 6.0 mi NNE 6.9 mph - 0.11 in Rain Rain
1:41 AM 44.6 °F 35.7 °F 44.6 °F 100% 29.86 in 4.0 mi East 24.2 mph 29.9 mph 0.22 in Rain Rain
1:53 AM 45.0 °F 36.9 °F 44.1 °F 97% 29.83 in 7.0 mi East 20.7 mph 35.7 mph 0.23 in Rain Light Rain
1:59 AM 44.6 °F 36.9 °F 44.6 °F 100% 29.90 in 8.0 mi NW 18.4 mph 32.2 mph 0.00 in Rain Light Rain
2:08 AM 44.6 °F 38.4 °F 44.6 °F 100% 29.91 in 10.0 mi North 12.7 mph 19.6 mph N/A Rain Light Rain
2:10 AM 44.6 °F 37.8 °F 44.6 °F 100% 29.91 in 10.0 mi NNE 15.0 mph 19.6 mph 0.00 in   Overcast
2:53 AM 44.6 °F 40.2 °F 44.6 °F 100% 29.92 in 10.0 mi North 8.1 mph - N/A Rain Light Rain
3:17 AM 44.6 °F 38.8 °F 42.8 °F 93% 29.92 in 10.0 mi North 11.5 mph - 0.00 in   Overcast
3:53 AM 44.1 °F 37.7 °F 43.0 °F 96% 29.91 in 10.0 mi NE 12.7 mph - 0.00 in   Overcast
4:53 AM 44.1 °F 38.1 °F 43.0 °F 96% 29.89 in 10.0 mi NE 11.5 mph - N/A   Overcast
5:53 AM 44.6 °F 40.2 °F 44.6 °F 100% 29.93 in 10.0 mi North 8.1 mph - N/A   Overcast
6:44 AM 44.6 °F 38.1 °F 42.8 °F 93% 29.94 in 5.0 mi NE 13.8 mph - N/A   Overcast
6:53 AM 44.1 °F 37.7 °F 43.0 °F 96% 29.94 in 4.0 mi NNE 12.7 mph - N/A   Overcast
7:12 AM 44.6 °F 38.8 °F 42.8 °F 93% 29.94 in 1.0 mi NNE 11.5 mph - N/A Rain Light Rain
7:53 AM 44.1 °F 37.7 °F 43.0 °F 96% 29.96 in 1.0 mi NE 12.7 mph - 0.02 in   Overcast
8:53 AM 45.0 °F 38.9 °F 44.1 °F 97% 29.97 in 3.0 mi NE 12.7 mph - 0.01 in   Overcast
9:53 AM 45.0 °F 39.7 °F 44.1 °F 97% 29.97 in 3.0 mi NE 10.4 mph - N/A   Overcast
10:44 AM 44.6 °F 38.4 °F 44.6 °F 100% 29.95 in 0.5 mi ENE 12.7 mph - 0.00 in   Overcast
10:53 AM 45.0 °F 39.3 °F 44.1 °F 97% 29.96 in 0.5 mi NE 11.5 mph - 0.00 in   Light Drizzle
11:53 AM 45.0 °F 39.3 °F 45.0 °F 100% 29.93 in 0.5 mi NE 11.5 mph - 0.00 in   Light Drizzle
12:53 PM 45.0 °F 39.7 °F 45.0 °F 100% 29.93 in 0.5 mi NNE 10.4 mph - 0.00 in   Light Drizzle
1:53 PM 46.0 °F 41.0 °F 45.0 °F 96% 29.90 in 1.8 mi NE 10.4 mph - 0.02 in Rain Light Rain
2:12 PM 44.6 °F 37.8 °F 44.6 °F 100% 29.89 in 1.8 mi NNE 15.0 mph - 0.00 in   Overcast
2:26 PM 44.6 °F 38.4 °F 44.6 °F 100% 29.89 in 1.8 mi NNE 12.7 mph - 0.00 in   Light Drizzle
2:53 PM 45.0 °F 38.5 °F 44.1 °F 97% 29.88 in 2.0 mi NNE 13.8 mph - 0.01 in Rain Light Rain
3:42 PM 44.6 °F 37.2 °F 42.8 °F 93% 29.86 in 1.5 mi NNE 17.3 mph - 0.02 in   Light Drizzle
3:53 PM 44.1 °F 36.5 °F 43.0 °F 96% 29.88 in 1.5 mi NNE 17.3 mph - 0.03 in   Light Drizzle
4:53 PM 42.8 °F 35.1 °F 42.8 °F 100% 29.87 in 1.5 mi NNE 16.1 mph - N/A   Light Drizzle
5:53 PM 42.1 °F 34.2 °F 41.0 °F 96% 29.89 in 1.5 mi NNE 16.1 mph - 0.01 in Rain Light Rain
6:53 PM 42.1 °F 34.2 °F 41.0 °F 96% 29.89 in 1.5 mi North 16.1 mph - 0.04 in Rain Light Rain
7:53 PM 42.1 °F 34.5 °F 41.0 °F 96% 29.88 in 1.5 mi NNE 15.0 mph - 0.02 in Rain Light Rain
8:45 PM 42.8 °F 34.8 °F 41.0 °F 93% 29.85 in 1.5 mi North 17.3 mph 25.3 mph 0.04 in Rain , Thunderstorm Light Thunderstorms and Rain
8:53 PM 42.1 °F 34.5 °F 41.0 °F 96% 29.88 in 1.5 mi NNW 15.0 mph 25.3 mph 0.15 in Rain , Thunderstorm Heavy Thunderstorms and Rain
9:20 PM 42.8 °F 34.3 °F 41.0 °F 93% 29.84 in 1.5 mi North 19.6 mph 29.9 mph 0.17 in Rain Heavy Rain
9:34 PM 42.8 °F 33.8 °F 41.0 °F 93% 29.86 in 1.5 mi North 21.9 mph 31.1 mph 0.23 in Rain Heavy Rain
9:47 PM 42.8 °F 34.3 °F 41.0 °F 93% 29.85 in 5.0 mi NNE 19.6 mph 29.9 mph 0.28 in Rain Rain
9:53 PM 42.1 °F 33.3 °F 41.0 °F 96% 29.86 in 6.0 mi North 19.6 mph 27.6 mph 0.28 in Rain Light Rain
10:13 PM 42.8 °F 34.8 °F 41.0 °F 93% 29.86 in 10.0 mi North 17.3 mph 26.5 mph 0.01 in Rain Light Rain
10:53 PM 39.2 °F 29.8 °F 37.4 °F 93% 29.88 in 5.0 mi North 18.4 mph 27.6 mph N/A Rain Rain
11:53 PM 37.9 °F 27.9 °F 37.0 °F 97% 29.89 in 8.0 mi NNW 19.6 mph 28.8 mph 0.05 in Rain Light Rain